Time,TemperatureF,DewpointF,PressureIn,WindDirection,WindDirectionDegrees,WindSpeedMPH,WindSpeedGustMPH,Humidity,HourlyPrecipIn,Conditions,Clouds,dailyrainin,SoftwareType,DateUTC
2013-01-11 00:01:00,29.1,11.5,29.62,ESE,115,9.0,18.0,47,0.00,,,0.00,meteohub,2013-01-11 07:01:00,
2013-01-11 00:06:00,28.9,11.7,29.63,SE,134,5.0,18.0,48,0.00,,,0.00,meteohub,2013-01-11 07:06:00,
2013-01-11 00:11:00,29.1,11.8,29.63,ESE,117,7.0,18.0,48,0.00,,,0.00,meteohub,2013-01-11 07:11:00,
2013-01-11 00:16:00,28.9,11.7,29.63,SE,126,4.0,17.0,48,0.00,,,0.00,meteohub,2013-01-11 07:16:00,
2013-01-11 00:21:00,28.8,12.0,29.62,ESE,112,7.0,14.0,49,0.00,,,0.00,meteohub,2013-01-11 07:21:00,
2013-01-11 00:26:00,28.8,12.0,29.63,SE,139,3.0,13.0,49,0.00,,,0.00,meteohub,2013-01-11 07:26:00,
2013-01-11 00:31:00,28.6,12.4,29.62,SE,126,3.0,12.0,50,0.00,,,0.00,meteohub,2013-01-11 07:31:00,
2013-01-11 00:36:00,28.2,12.0,29.63,East,89,2.0,11.0,50,0.00,,,0.00,meteohub,2013-01-11 07:36:00,
2013-01-11 00:41:00,28.2,12.4,29.62,SSE,159,4.0,8.0,51,0.00,,,0.00,meteohub,2013-01-11 07:41:00,
2013-01-11 00:46:00,28.2,12.4,29.62,ESE,122,6.0,9.0,51,0.00,,,0.00,meteohub,2013-01-11 07:46:00,
2013-01-11 00:51:00,28.2,12.9,29.61,SW,231,8.0,12.0,52,0.00,,,0.00,meteohub,2013-01-11 07:51:00,
2013-01-11 00:56:00,28.2,12.9,29.62,ENE,64,4.0,16.0,52,0.00,,,0.00,meteohub,2013-01-11 07:56:00,
2013-01-11 01:02:00,28.0,12.7,29.61,ESE,122,6.0,16.0,52,0.00,,,0.00,meteohub,2013-01-11 08:02:00,
2013-01-11 01:07:00,28.0,12.7,29.62,WSW,240,12.0,16.0,52,0.00,,,0.00,meteohub,2013-01-11 08:07:00,
2013-01-11 01:12:00,27.9,12.6,29.62,East,101,3.0,14.0,52,0.00,,,0.00,meteohub,2013-01-11 08:12:00,
2013-01-11 01:17:00,27.9,12.9,29.61,ESE,115,1.0,14.0,53,0.00,,,0.00,meteohub,2013-01-11 08:17:00,
2013-01-11 01:22:00,27.9,12.9,29.61,ESE,112,4.0,14.0,53,0.00,,,0.00,meteohub,2013-01-11 08:22:00,
2013-01-11 01:27:00,27.7,13.3,29.60,SW,217,4.0,8.0,54,0.00,,,0.00,meteohub,2013-01-11 08:27:00,
2013-01-11 01:32:00,27.9,13.5,29.60,SE,126,2.0,9.0,54,0.00,,,0.00,meteohub,2013-01-11 08:32:00,
2013-01-11 01:37:00,28.0,13.5,29.60,SE,127,2.0,14.0,54,0.00,,,0.00,meteohub,2013-01-11 08:37:00,
2013-01-11 01:42:00,27.9,13.5,29.60,SE,139,4.0,14.0,54,0.00,,,0.00,meteohub,2013-01-11 08:42:00,
2013-01-11 01:47:00,27.3,13.3,29.60,South,181,6.0,14.0,55,0.00,,,0.00,meteohub,2013-01-11 08:47:00,
2013-01-11 01:52:00,27.0,13.3,29.60,ESE,121,1.0,17.0,56,0.00,,,0.00,meteohub,2013-01-11 08:52:00,
2013-01-11 01:57:00,26.6,13.8,29.59,SE,146,2.0,17.0,58,0.00,,,0.00,meteohub,2013-01-11 08:57:00,
2013-01-11 02:02:00,26.4,14.0,29.59,SE,126,3.0,17.0,59,0.00,,,0.00,meteohub,2013-01-11 09:02:00,
2013-01-11 02:07:00,26.2,13.8,29.58,SE,133,4.0,15.0,59,0.00,,,0.00,meteohub,2013-01-11 09:07:00,
2013-01-11 02:12:00,26.2,14.2,29.58,East,94,4.0,11.0,60,0.00,,,0.00,meteohub,2013-01-11 09:12:00,
2013-01-11 02:17:00,26.1,14.0,29.57,SE,142,4.0,10.0,60,0.00,,,0.00,meteohub,2013-01-11 09:17:00,
2013-01-11 02:22:00,26.1,14.5,29.56,SE,143,3.0,9.0,61,0.00,,,0.00,meteohub,2013-01-11 09:22:00,
2013-01-11 02:27:00,25.9,14.4,29.56,ESE,118,1.0,9.0,61,0.00,,,0.00,meteohub,2013-01-11 09:27:00,
2013-01-11 02:32:00,26.1,14.5,29.56,ESE,105,7.0,9.0,61,0.00,,,0.00,meteohub,2013-01-11 09:32:00,
2013-01-11 02:37:00,25.9,14.7,29.56,SE,133,4.0,11.0,62,0.00,,,0.00,meteohub,2013-01-11 09:37:00,
2013-01-11 02:42:00,26.1,15.3,29.55,SE,136,6.0,13.0,63,0.00,,,0.00,meteohub,2013-01-11 09:42:00,
2013-01-11 02:47:00,26.2,15.4,29.55,SE,146,6.0,15.0,63,0.00,,,0.00,meteohub,2013-01-11 09:47:00,
2013-01-11 02:52:00,26.4,15.1,29.54,SE,129,3.0,15.0,62,0.00,,,0.00,meteohub,2013-01-11 09:52:00,
2013-01-11 02:57:00,26.2,15.4,29.53,SE,146,8.0,12.0,63,0.00,,,0.00,meteohub,2013-01-11 09:57:00,
2013-01-11 03:02:00,26.8,15.4,29.52,ESE,112,10.0,12.0,62,0.00,,,0.00,meteohub,2013-01-11 10:02:00,
2013-01-11 03:07:00,27.0,14.9,29.52,East,79,6.0,15.0,60,0.00,,,0.00,meteohub,2013-01-11 10:07:00,
2013-01-11 03:12:00,27.3,15.3,29.52,SSE,149,11.0,15.0,60,0.00,,,0.00,meteohub,2013-01-11 10:12:00,
2013-01-11 03:17:00,27.3,15.3,29.52,ESE,107,5.0,16.0,60,0.00,,,0.00,meteohub,2013-01-11 10:17:00,
2013-01-11 03:22:00,27.1,15.1,29.52,SE,145,3.0,16.0,60,0.00,,,0.00,meteohub,2013-01-11 10:22:00,
2013-01-11 03:27:00,26.8,15.1,29.51,ESE,115,5.0,16.0,61,0.00,,,0.00,meteohub,2013-01-11 10:27:00,
2013-01-11 03:32:00,27.0,15.3,29.50,East,101,6.0,12.0,61,0.00,,,0.00,meteohub,2013-01-11 10:32:00,
2013-01-11 03:37:00,27.1,15.4,29.51,ESE,113,7.0,12.0,61,0.00,,,0.00,meteohub,2013-01-11 10:37:00,
2013-01-11 03:42:00,27.3,15.6,29.49,SE,129,9.0,18.0,61,0.00,,,0.00,meteohub,2013-01-11 10:42:00,
2013-01-11 03:47:00,27.3,16.0,29.49,SSE,157,10.0,19.0,62,0.00,,,0.00,meteohub,2013-01-11 10:47:00,
2013-01-11 03:52:00,27.5,16.2,29.49,SE,143,7.0,19.0,62,0.00,,,0.00,meteohub,2013-01-11 10:52:00,
2013-01-11 03:57:00,27.5,16.2,29.49,ESE,120,6.0,19.0,62,0.00,,,0.00,meteohub,2013-01-11 10:57:00,
2013-01-11 04:02:00,27.5,16.2,29.48,SSW,195,3.0,20.0,62,0.00,,,0.00,meteohub,2013-01-11 11:02:00,
2013-01-11 04:07:00,27.5,16.2,29.47,SE,133,16.0,20.0,62,0.00,,,0.00,meteohub,2013-01-11 11:07:00,
2013-01-11 04:12:00,27.3,16.0,29.47,ESE,105,10.0,20.0,62,0.00,,,0.00,meteohub,2013-01-11 11:12:00,
2013-01-11 04:17:00,27.3,16.3,29.47,ESE,117,12.0,22.0,63,0.00,,,0.00,meteohub,2013-01-11 11:17:00,
2013-01-11 04:22:00,27.1,15.8,29.46,SE,142,11.0,22.0,62,0.00,,,0.00,meteohub,2013-01-11 11:22:00,
2013-01-11 04:27:00,27.0,15.6,29.46,SSE,152,9.0,22.0,62,0.00,,,0.00,meteohub,2013-01-11 11:27:00,
2013-01-11 04:32:00,27.0,15.6,29.44,ESE,115,10.0,18.0,62,0.00,,,0.00,meteohub,2013-01-11 11:32:00,
2013-01-11 04:37:00,26.8,15.4,29.46,SE,141,7.0,18.0,62,0.00,,,0.00,meteohub,2013-01-11 11:37:00,
2013-01-11 04:42:00,26.8,14.7,29.45,SE,145,10.0,17.0,60,0.00,,,0.00,meteohub,2013-01-11 11:42:00,
2013-01-11 04:47:00,26.8,14.7,29.45,ESE,108,10.0,22.0,60,0.00,,,0.00,meteohub,2013-01-11 11:47:00,
2013-01-11 04:52:00,26.8,14.7,29.44,ESE,122,5.0,22.0,60,0.00,,,0.00,meteohub,2013-01-11 11:52:00,
2013-01-11 04:57:00,26.8,14.4,29.43,ESE,105,14.0,23.0,59,0.00,,,0.00,meteohub,2013-01-11 11:57:00,
2013-01-11 05:02:00,26.8,14.7,29.44,East,101,14.0,24.0,60,0.00,,,0.00,meteohub,2013-01-11 12:02:00,
2013-01-11 05:07:00,26.8,14.4,29.43,WNW,293,7.0,24.0,59,0.00,,,0.00,meteohub,2013-01-11 12:07:00,
2013-01-11 05:12:00,26.4,14.4,29.43,ESE,122,9.0,24.0,60,0.00,,,0.00,meteohub,2013-01-11 12:12:00,
2013-01-11 05:17:00,26.4,14.4,29.43,East,92,11.0,20.0,60,0.00,,,0.00,meteohub,2013-01-11 12:17:00,
2013-01-11 05:22:00,26.4,14.4,29.43,SW,222,13.0,18.0,60,0.00,,,0.00,meteohub,2013-01-11 12:22:00,
2013-01-11 05:27:00,26.2,13.8,29.41,ESE,110,15.0,17.0,59,0.00,,,0.00,meteohub,2013-01-11 12:27:00,
2013-01-11 05:32:00,26.4,14.4,29.41,ESE,108,13.0,24.0,60,0.00,,,0.00,meteohub,2013-01-11 12:32:00,
2013-01-11 05:37:00,26.2,14.5,29.42,ESE,104,8.0,24.0,61,0.00,,,0.00,meteohub,2013-01-11 12:37:00,
2013-01-11 05:42:00,26.2,14.5,29.40,SE,136,9.0,24.0,61,0.00,,,0.00,meteohub,2013-01-11 12:42:00,
2013-01-11 05:47:00,26.2,13.8,29.41,SE,127,7.0,26.0,59,0.00,,,0.00,meteohub,2013-01-11 12:47:00,
2013-01-11 05:52:00,26.2,13.8,29.41,SE,127,12.0,26.0,59,0.00,,,0.00,meteohub,2013-01-11 12:52:00,
2013-01-11 05:57:00,26.1,14.0,29.40,East,85,15.0,26.0,60,0.00,,,0.00,meteohub,2013-01-11 12:57:00,
2013-01-11 06:02:00,25.9,13.8,29.40,SE,133,14.0,34.0,60,0.00,,,0.00,meteohub,2013-01-11 13:02:00,
2013-01-11 06:07:00,25.7,14.9,29.40,ESE,103,6.0,34.0,63,0.00,,,0.00,meteohub,2013-01-11 13:07:00,
2013-01-11 06:12:00,25.7,14.2,29.39,East,98,9.0,34.0,61,0.00,,,0.00,meteohub,2013-01-11 13:12:00,
2013-01-11 06:17:00,25.7,13.8,29.39,East,98,8.0,25.0,60,0.00,,,0.00,meteohub,2013-01-11 13:17:00,
2013-01-11 06:22:00,25.5,13.1,29.39,ESE,120,5.0,22.0,59,0.00,,,0.00,meteohub,2013-01-11 13:22:00,
2013-01-11 06:27:00,25.5,13.6,29.38,ESE,112,13.0,26.0,60,0.00,,,0.00,meteohub,2013-01-11 13:27:00,
2013-01-11 06:32:00,25.3,13.8,29.38,ESE,107,13.0,26.0,61,0.00,,,0.00,meteohub,2013-01-11 13:32:00,
2013-01-11 06:37:00,25.2,13.6,29.40,SE,136,26.0,26.0,61,0.00,,,0.00,meteohub,2013-01-11 13:37:00,
2013-01-11 06:42:00,25.0,13.8,29.39,East,92,17.0,26.0,62,0.00,,,0.00,meteohub,2013-01-11 13:42:00,
2013-01-11 06:47:00,24.6,13.5,29.39,ESE,120,10.0,26.0,62,0.00,,,0.00,meteohub,2013-01-11 13:47:00,
2013-01-11 06:52:00,24.4,13.3,29.39,ESE,115,10.0,26.0,62,0.00,,,0.00,meteohub,2013-01-11 13:52:00,
2013-01-11 06:57:00,24.3,13.8,29.38,SSE,160,15.0,26.0,64,0.00,,,0.00,meteohub,2013-01-11 13:57:00,
2013-01-11 07:02:00,24.1,14.0,29.39,SE,143,12.0,26.0,65,0.00,,,0.00,meteohub,2013-01-11 14:02:00,
2013-01-11 07:07:00,23.7,14.0,29.39,SE,125,13.0,21.0,66,0.00,,,0.00,meteohub,2013-01-11 14:07:00,
2013-01-11 07:12:00,23.5,14.2,29.38,SE,135,8.0,31.0,67,0.00,,,0.00,meteohub,2013-01-11 14:12:00,
2013-01-11 07:17:00,23.2,14.9,29.38,SSE,153,10.0,31.0,70,0.00,,,0.00,meteohub,2013-01-11 14:17:00,
2013-01-11 07:22:00,22.6,15.3,29.39,SE,131,18.0,25.0,73,0.00,,,0.00,meteohub,2013-01-11 14:22:00,
2013-01-11 07:27:00,21.7,16.9,29.39,ESE,117,4.0,25.0,81,0.00,,,0.00,meteohub,2013-01-11 14:27:00,
2013-01-11 07:32:00,20.5,16.7,29.39,SSE,152,9.0,25.0,85,0.00,,,0.00,meteohub,2013-01-11 14:32:00,
2013-01-11 07:37:00,19.6,16.2,29.39,SW,217,10.0,23.0,86,0.00,,,0.00,meteohub,2013-01-11 14:37:00,
2013-01-11 07:42:00,18.7,15.4,29.40,SE,139,6.0,23.0,87,0.00,,,0.00,meteohub,2013-01-11 14:42:00,
2013-01-11 07:47:00,18.0,14.7,29.39,SSW,203,8.0,22.0,87,0.00,,,0.00,meteohub,2013-01-11 14:47:00,
2013-01-11 07:52:00,17.4,14.5,29.39,SSW,201,10.0,24.0,88,0.00,,,0.00,meteohub,2013-01-11 14:52:00,
2013-01-11 07:57:00,17.1,14.2,29.38,South,186,8.0,26.0,88,0.00,,,0.00,meteohub,2013-01-11 14:57:00,
2013-01-11 08:02:00,16.7,14.0,29.39,WNW,300,4.0,36.0,89,0.00,,,0.00,meteohub,2013-01-11 15:02:00,
2013-01-11 08:07:00,16.3,13.5,29.40,ESE,110,8.0,36.0,88,0.00,,,0.00,meteohub,2013-01-11 15:07:00,
2013-01-11 08:12:00,16.0,13.1,29.38,SSE,157,7.0,36.0,88,0.00,,,0.00,meteohub,2013-01-11 15:12:00,
2013-01-11 08:17:00,15.6,12.9,29.39,East,89,12.0,26.0,89,0.00,,,0.00,meteohub,2013-01-11 15:17:00,
2013-01-11 08:22:00,15.6,12.9,29.38,SE,146,10.0,27.0,89,0.00,,,0.00,meteohub,2013-01-11 15:22:00,
2013-01-11 08:27:00,15.4,12.7,29.40,SSE,152,5.0,27.0,89,0.00,,,0.00,meteohub,2013-01-11 15:27:00,
2013-01-11 08:32:00,15.3,12.6,29.41,ESE,105,12.0,23.0,89,0.00,,,0.00,meteohub,2013-01-11 15:32:00,
2013-01-11 08:37:00,15.3,12.6,29.39,SSE,152,13.0,23.0,89,0.00,,,0.00,meteohub,2013-01-11 15:37:00,
2013-01-11 08:42:00,14.9,12.2,29.39,ENE,77,12.0,21.0,89,0.00,,,0.00,meteohub,2013-01-11 15:42:00,
2013-01-11 08:47:00,14.7,12.0,29.40,ESE,108,14.0,22.0,89,0.00,,,0.00,meteohub,2013-01-11 15:47:00,
2013-01-11 08:52:00,14.5,11.8,29.40,SE,143,6.0,22.0,89,0.00,,,0.00,meteohub,2013-01-11 15:52:00,
2013-01-11 08:57:00,14.4,11.7,29.41,SE,124,16.0,22.0,89,0.00,,,0.00,meteohub,2013-01-11 15:57:00,
2013-01-11 09:02:00,14.0,11.1,29.41,ESE,115,8.0,23.0,88,0.00,,,0.00,meteohub,2013-01-11 16:02:00,
2013-01-11 09:07:00,13.3,10.2,29.42,SE,141,11.0,27.0,87,0.00,,,0.00,meteohub,2013-01-11 16:07:00,
2013-01-11 09:12:00,12.6,9.5,29.42,NNW,336,9.0,28.0,87,0.00,,,0.00,meteohub,2013-01-11 16:12:00,
2013-01-11 09:17:00,11.5,7.9,29.43,SE,132,8.0,28.0,85,0.00,,,0.00,meteohub,2013-01-11 16:17:00,
2013-01-11 09:23:00,10.6,7.2,29.44,SE,129,14.0,32.0,86,0.00,,,0.00,meteohub,2013-01-11 16:23:00,
2013-01-11 09:28:00,10.0,6.6,29.45,SE,131,12.0,32.0,86,0.00,,,0.00,meteohub,2013-01-11 16:28:00,
2013-01-11 09:33:00,9.7,6.3,29.44,SSW,201,14.0,32.0,86,0.00,,,0.00,meteohub,2013-01-11 16:33:00,
2013-01-11 09:38:00,9.3,5.9,29.43,WSW,247,7.0,29.0,86,0.00,,,0.00,meteohub,2013-01-11 16:38:00,
2013-01-11 09:43:00,9.1,5.5,29.43,SSE,150,8.0,29.0,85,0.00,,,0.00,meteohub,2013-01-11 16:43:00,
2013-01-11 09:48:00,9.1,5.4,29.44,ESE,114,9.0,26.0,84,0.00,,,0.00,meteohub,2013-01-11 16:48:00,
2013-01-11 09:54:00,9.1,5.0,29.43,NNW,333,6.0,26.0,83,0.00,,,0.00,meteohub,2013-01-11 16:54:00,
2013-01-11 09:59:00,9.1,4.8,29.45,SE,136,13.0,26.0,82,0.00,,,0.00,meteohub,2013-01-11 16:59:00,
2013-01-11 10:04:00,9.3,4.6,29.45,SE,131,4.0,26.0,81,0.00,,,0.00,meteohub,2013-01-11 17:04:00,
2013-01-11 10:09:00,9.5,4.6,29.44,SE,139,9.0,34.0,80,0.00,,,0.00,meteohub,2013-01-11 17:09:00,
2013-01-11 10:14:00,9.9,4.6,29.45,SSE,167,16.0,34.0,79,0.00,,,0.00,meteohub,2013-01-11 17:14:00,
2013-01-11 10:19:00,9.9,4.5,29.46,East,96,4.0,33.0,78,0.00,,,0.00,meteohub,2013-01-11 17:19:00,
2013-01-11 10:24:00,10.0,4.3,29.46,East,91,10.0,33.0,77,0.00,,,0.00,meteohub,2013-01-11 17:24:00,
2013-01-11 10:29:00,10.2,3.6,29.47,SSE,162,13.0,33.0,74,0.00,,,0.00,meteohub,2013-01-11 17:29:00,
2013-01-11 10:34:00,10.2,3.0,29.47,SSE,153,9.0,26.0,72,0.00,,,0.00,meteohub,2013-01-11 17:34:00,
2013-01-11 10:39:00,10.6,3.0,29.47,SE,125,24.0,26.0,71,0.00,,,0.00,meteohub,2013-01-11 17:39:00,
2013-01-11 10:44:00,10.4,1.6,29.46,SE,139,8.0,31.0,67,0.00,,,0.00,meteohub,2013-01-11 17:44:00,
2013-01-11 10:49:00,10.2,1.4,29.44,NNE,19,9.0,31.0,67,0.00,,,0.00,meteohub,2013-01-11 17:49:00,
2013-01-11 10:54:00,10.0,0.0,29.45,SE,146,12.0,29.0,63,0.00,,,0.00,meteohub,2013-01-11 17:54:00,
2013-01-11 11:00:00,9.9,-0.2,29.46,SSE,156,23.0,35.0,63,0.00,,,0.00,meteohub,2013-01-11 18:00:00,
2013-01-11 11:05:00,9.9,0.5,29.45,SSE,150,12.0,35.0,65,0.00,,,0.00,meteohub,2013-01-11 18:05:00,
2013-01-11 11:10:00,10.0,0.0,29.45,ESE,109,7.0,34.0,63,0.00,,,0.00,meteohub,2013-01-11 18:10:00,
2013-01-11 11:15:00,10.6,-0.2,29.45,SW,235,16.0,29.0,61,0.00,,,0.00,meteohub,2013-01-11 18:15:00,
2013-01-11 11:20:00,10.4,-0.8,29.46,SSE,158,11.0,26.0,60,0.00,,,0.00,meteohub,2013-01-11 18:20:00,
2013-01-11 11:25:00,10.8,0.0,29.46,SW,217,12.0,26.0,61,0.00,,,0.00,meteohub,2013-01-11 18:25:00,
2013-01-11 11:30:00,11.1,-0.4,29.45,SSE,167,12.0,24.0,59,0.00,,,0.00,meteohub,2013-01-11 18:30:00,
2013-01-11 11:35:00,10.9,0.1,29.45,SW,229,5.0,25.0,61,0.00,,,0.00,meteohub,2013-01-11 18:35:00,
2013-01-11 11:40:00,10.4,0.0,29.45,ESE,103,25.0,27.0,62,0.00,,,0.00,meteohub,2013-01-11 18:40:00,
2013-01-11 11:45:00,10.2,-0.2,29.43,SE,146,22.0,29.0,62,0.00,,,0.00,meteohub,2013-01-11 18:45:00,
2013-01-11 11:51:00,10.0,0.3,29.44,ENE,75,21.0,30.0,64,0.00,,,0.00,meteohub,2013-01-11 18:51:00,
2013-01-11 11:56:00,10.4,1.0,29.44,ESE,110,13.0,30.0,65,0.00,,,0.00,meteohub,2013-01-11 18:56:00,
2013-01-11 12:01:00,10.9,1.2,29.45,WSW,242,13.0,31.0,64,0.00,,,0.00,meteohub,2013-01-11 19:01:00,
2013-01-11 12:06:00,11.1,1.0,29.45,ESE,108,18.0,31.0,63,0.00,,,0.00,meteohub,2013-01-11 19:06:00,
2013-01-11 12:11:00,11.1,1.0,29.45,East,93,22.0,29.0,63,0.00,,,0.00,meteohub,2013-01-11 19:11:00,
2013-01-11 12:16:00,10.6,0.5,29.46,SSE,148,8.0,27.0,63,0.00,,,0.00,meteohub,2013-01-11 19:16:00,
2013-01-11 12:21:00,10.2,-1.7,29.46,South,174,13.0,27.0,58,0.00,,,0.00,meteohub,2013-01-11 19:21:00,
2013-01-11 12:26:00,10.2,-2.7,29.44,ESE,123,18.0,27.0,55,0.00,,,0.00,meteohub,2013-01-11 19:26:00,
2013-01-11 12:32:00,10.0,-2.2,29.45,SE,126,11.0,29.0,57,0.00,,,0.00,meteohub,2013-01-11 19:32:00,
2013-01-11 12:37:00,9.7,-2.2,29.46,ESE,108,15.0,29.0,58,0.00,,,0.00,meteohub,2013-01-11 19:37:00,
2013-01-11 12:42:00,9.7,-4.0,29.45,WSW,256,12.0,29.0,53,0.00,,,0.00,meteohub,2013-01-11 19:42:00,
2013-01-11 12:47:00,10.2,-4.0,29.44,ESE,106,17.0,29.0,52,0.00,,,0.00,meteohub,2013-01-11 19:47:00,
2013-01-11 12:52:00,10.6,-5.3,29.45,East,90,9.0,27.0,48,0.00,,,0.00,meteohub,2013-01-11 19:52:00,
2013-01-11 12:58:00,10.9,-4.9,29.45,ESE,112,9.0,26.0,48,0.00,,,0.00,meteohub,2013-01-11 19:58:00,
2013-01-11 13:03:00,10.8,-5.1,29.44,West,278,14.0,26.0,48,0.00,,,0.00,meteohub,2013-01-11 20:03:00,
2013-01-11 13:08:00,10.9,-4.5,29.46,SE,126,7.0,31.0,49,0.00,,,0.00,meteohub,2013-01-11 20:08:00,
2013-01-11 13:13:00,10.8,-5.4,29.47,WNW,299,11.0,31.0,47,0.00,,,0.00,meteohub,2013-01-11 20:13:00,
2013-01-11 13:18:00,10.4,-6.3,29.47,NW,312,11.0,31.0,46,0.00,,,0.00,meteohub,2013-01-11 20:18:00,
2013-01-11 13:23:00,10.2,-5.6,29.47,SSE,153,7.0,33.0,48,0.01,,,0.01,meteohub,2013-01-11 20:23:00,
2013-01-11 13:28:00,10.2,-5.6,29.48,WSW,252,10.0,33.0,48,0.01,,,0.01,meteohub,2013-01-11 20:28:00,
2013-01-11 13:33:00,10.8,-5.4,29.47,South,183,7.0,33.0,47,0.01,,,0.01,meteohub,2013-01-11 20:33:00,
2013-01-11 13:38:00,10.8,-6.3,29.48,East,101,25.0,31.0,45,0.01,,,0.01,meteohub,2013-01-11 20:38:00,
2013-01-11 13:44:00,10.8,-6.3,29.47,SE,145,9.0,26.0,45,0.01,,,0.01,meteohub,2013-01-11 20:44:00,
2013-01-11 13:49:00,10.8,-6.3,29.49,South,184,3.0,30.0,45,0.01,,,0.01,meteohub,2013-01-11 20:49:00,
2013-01-11 13:54:00,10.8,-5.1,29.50,SSE,166,7.0,30.0,48,0.01,,,0.01,meteohub,2013-01-11 20:54:00,
2013-01-11 13:59:00,10.6,-5.6,29.49,SE,124,12.0,28.0,47,0.01,,,0.01,meteohub,2013-01-11 20:59:00,
2013-01-11 14:04:00,10.2,-4.7,29.51,ESE,119,7.0,28.0,50,0.01,,,0.01,meteohub,2013-01-11 21:04:00,
2013-01-11 14:09:00,10.2,-5.1,29.52,SSW,210,15.0,29.0,49,0.01,,,0.01,meteohub,2013-01-11 21:09:00,
2013-01-11 14:14:00,10.2,-4.7,29.53,SW,219,8.0,29.0,50,0.01,,,0.01,meteohub,2013-01-11 21:14:00,
2013-01-11 14:19:00,10.2,-5.1,29.55,ESE,113,8.0,29.0,49,0.01,,,0.01,meteohub,2013-01-11 21:19:00,
2013-01-11 14:25:00,10.2,-4.7,29.54,South,180,9.0,30.0,50,0.00,,,0.01,meteohub,2013-01-11 21:25:00,
2013-01-11 14:30:00,10.2,-4.7,29.55,NNE,22,10.0,30.0,50,0.00,,,0.01,meteohub,2013-01-11 21:30:00,
2013-01-11 14:35:00,10.6,-5.6,29.55,SE,131,19.0,26.0,47,0.00,,,0.01,meteohub,2013-01-11 21:35:00,
2013-01-11 14:40:00,10.6,-4.9,29.55,ESE,119,14.0,26.0,49,0.00,,,0.01,meteohub,2013-01-11 21:40:00,
2013-01-11 14:45:00,10.4,-4.2,29.57,SW,226,11.0,26.0,51,0.00,,,0.01,meteohub,2013-01-11 21:45:00,
2013-01-11 14:50:00,10.6,-4.4,29.58,SSW,194,13.0,25.0,50,0.00,,,0.01,meteohub,2013-01-11 21:50:00,
2013-01-11 14:55:00,10.8,-4.2,29.59,SW,236,19.0,24.0,50,0.00,,,0.01,meteohub,2013-01-11 21:55:00,
2013-01-11 15:00:00,10.4,-4.5,29.58,ESE,120,13.0,27.0,50,0.00,,,0.01,meteohub,2013-01-11 22:00:00,
2013-01-11 15:05:00,10.2,-4.4,29.59,SE,146,10.0,27.0,51,0.00,,,0.01,meteohub,2013-01-11 22:05:00,
2013-01-11 15:10:00,9.9,-4.2,29.61,SE,129,13.0,27.0,52,0.00,,,0.01,meteohub,2013-01-11 22:10:00,
2013-01-11 15:16:00,9.7,-3.6,29.61,SSE,160,14.0,30.0,54,0.00,,,0.01,meteohub,2013-01-11 22:16:00,
2013-01-11 15:21:00,9.0,-1.5,29.62,SSW,212,6.0,30.0,62,0.00,,,0.01,meteohub,2013-01-11 22:21:00,
2013-01-11 15:26:00,8.4,-1.3,29.62,SE,143,10.0,29.0,64,0.00,,,0.01,meteohub,2013-01-11 22:26:00,
2013-01-11 15:31:00,7.9,-0.4,29.64,SSW,203,11.0,25.0,68,0.00,,,0.01,meteohub,2013-01-11 22:31:00,
2013-01-11 15:36:00,7.5,-0.2,29.64,WSW,245,7.0,22.0,70,0.00,,,0.01,meteohub,2013-01-11 22:36:00,
2013-01-11 15:41:00,7.5,-0.6,29.65,WSW,257,17.0,22.0,69,0.00,,,0.01,meteohub,2013-01-11 22:41:00,
2013-01-11 15:46:00,7.7,0.0,29.65,SE,146,4.0,22.0,70,0.00,,,0.01,meteohub,2013-01-11 22:46:00,
2013-01-11 15:51:00,7.5,0.1,29.65,ESE,117,4.0,22.0,71,0.00,,,0.01,meteohub,2013-01-11 22:51:00,
2013-01-11 15:56:00,7.3,0.0,29.66,SSW,207,14.0,19.0,71,0.00,,,0.01,meteohub,2013-01-11 22:56:00,
2013-01-11 16:01:00,7.3,-0.9,29.65,ESE,108,11.0,22.0,68,0.00,,,0.01,meteohub,2013-01-11 23:01:00,
2013-01-11 16:07:00,7.3,-1.7,29.66,East,94,14.0,22.0,66,0.00,,,0.01,meteohub,2013-01-11 23:07:00,
2013-01-11 16:12:00,7.2,-2.2,29.67,ESE,123,5.0,24.0,65,0.00,,,0.01,meteohub,2013-01-11 23:12:00,
2013-01-11 16:17:00,7.2,-3.5,29.68,East,88,9.0,24.0,61,0.00,,,0.01,meteohub,2013-01-11 23:17:00,
2013-01-11 16:22:00,7.2,-3.8,29.69,SSE,162,9.0,24.0,60,0.00,,,0.01,meteohub,2013-01-11 23:22:00,
2013-01-11 16:27:00,7.0,-4.4,29.68,ENE,65,10.0,24.0,59,0.00,,,0.01,meteohub,2013-01-11 23:27:00,
2013-01-11 16:32:00,7.0,-4.4,29.68,SE,134,9.0,23.0,59,0.00,,,0.01,meteohub,2013-01-11 23:32:00,
2013-01-11 16:37:00,6.6,-4.7,29.69,ESE,115,8.0,21.0,59,0.00,,,0.01,meteohub,2013-01-11 23:37:00,
2013-01-11 16:42:00,6.3,-5.4,29.70,SE,129,10.0,21.0,58,0.00,,,0.01,meteohub,2013-01-11 23:42:00,
2013-01-11 16:47:00,6.3,-5.1,29.69,WNW,287,8.0,20.0,59,0.00,,,0.01,meteohub,2013-01-11 23:47:00,
2013-01-11 16:52:00,6.1,-4.5,29.70,SSE,167,6.0,16.0,61,0.00,,,0.01,meteohub,2013-01-11 23:52:00,
2013-01-11 16:57:00,5.9,-4.0,29.70,East,98,9.0,20.0,63,0.00,,,0.01,meteohub,2013-01-11 23:57:00,
2013-01-11 17:02:00,5.7,-4.2,29.71,SE,132,6.0,20.0,63,0.00,,,0.01,meteohub,2013-01-12 00:02:00,
2013-01-11 17:07:00,5.7,-3.5,29.71,SSE,158,5.0,20.0,65,0.00,,,0.00,meteohub,2013-01-12 00:07:00,
2013-01-11 17:12:00,5.5,-4.0,29.72,SE,141,5.0,24.0,64,0.00,,,0.00,meteohub,2013-01-12 00:12:00,
2013-01-11 17:17:00,5.5,-4.0,29.72,SSE,150,5.0,24.0,64,0.00,,,0.00,meteohub,2013-01-12 00:17:00,
2013-01-11 17:22:00,5.5,-5.1,29.72,SE,132,5.0,24.0,61,0.00,,,0.00,meteohub,2013-01-12 00:22:00,
2013-01-11 17:27:00,5.5,-4.7,29.72,SW,232,10.0,24.0,62,0.00,,,0.00,meteohub,2013-01-12 00:27:00,
2013-01-11 17:32:00,5.4,-5.1,29.72,SSE,162,3.0,24.0,61,0.00,,,0.00,meteohub,2013-01-12 00:32:00,
2013-01-11 17:37:00,5.4,-5.4,29.72,SE,141,9.0,23.0,60,0.00,,,0.00,meteohub,2013-01-12 00:37:00,
2013-01-11 17:42:00,5.4,-5.4,29.71,ESE,119,11.0,23.0,60,0.00,,,0.00,meteohub,2013-01-12 00:42:00,
2013-01-11 17:47:00,5.4,-5.4,29.72,SSE,162,13.0,18.0,60,0.00,,,0.00,meteohub,2013-01-12 00:47:00,
2013-01-11 17:52:00,5.2,-6.0,29.73,ESE,123,9.0,18.0,59,0.00,,,0.00,meteohub,2013-01-12 00:52:00,
2013-01-11 17:57:00,5.2,-6.7,29.72,South,187,10.0,17.0,57,0.00,,,0.00,meteohub,2013-01-12 00:57:00,
2013-01-11 18:02:00,5.2,-6.7,29.73,ESE,104,6.0,18.0,57,0.00,,,0.00,meteohub,2013-01-12 01:02:00,
2013-01-11 18:07:00,5.0,-6.9,29.73,ESE,116,3.0,18.0,57,0.00,,,0.00,meteohub,2013-01-12 01:07:00,
2013-01-11 18:12:00,4.8,-7.1,29.74,SSE,153,12.0,28.0,57,0.00,,,0.00,meteohub,2013-01-12 01:12:00,
2013-01-11 18:17:00,4.8,-7.1,29.74,SW,225,8.0,28.0,57,0.00,,,0.00,meteohub,2013-01-12 01:17:00,
2013-01-11 18:22:00,4.6,-7.2,29.73,ESE,119,6.0,28.0,57,0.00,,,0.00,meteohub,2013-01-12 01:22:00,
2013-01-11 18:27:00,4.6,-7.2,29.73,ESE,113,9.0,21.0,57,0.00,,,0.00,meteohub,2013-01-12 01:27:00,
2013-01-11 18:32:00,4.6,-7.2,29.74,East,94,8.0,26.0,57,0.00,,,0.00,meteohub,2013-01-12 01:32:00,
2013-01-11 18:37:00,4.6,-7.2,29.73,ESE,110,10.0,26.0,57,0.00,,,0.00,meteohub,2013-01-12 01:37:00,
2013-01-11 18:42:00,4.6,-7.2,29.72,ESE,117,19.0,30.0,57,0.00,,,0.00,meteohub,2013-01-12 01:42:00,
2013-01-11 18:47:00,4.6,-6.9,29.73,SE,127,9.0,30.0,58,0.00,,,0.00,meteohub,2013-01-12 01:47:00,
2013-01-11 18:52:00,4.5,-6.7,29.73,South,181,10.0,23.0,59,0.00,,,0.00,meteohub,2013-01-12 01:52:00,
2013-01-11 18:57:00,4.5,-7.1,29.73,NE,41,8.0,23.0,58,0.00,,,0.00,meteohub,2013-01-12 01:57:00,
2013-01-11 19:02:00,4.5,-6.7,29.75,South,188,10.0,21.0,59,0.00,,,0.00,meteohub,2013-01-12 02:02:00,
2013-01-11 19:07:00,4.5,-6.7,29.76,SW,219,8.0,22.0,59,0.00,,,0.00,meteohub,2013-01-12 02:07:00,
2013-01-11 19:12:00,4.5,-6.7,29.76,SSE,150,6.0,27.0,59,0.00,,,0.00,meteohub,2013-01-12 02:12:00,
2013-01-11 19:17:00,4.3,-6.5,29.77,SSW,202,6.0,27.0,60,0.00,,,0.00,meteohub,2013-01-12 02:17:00,
2013-01-11 19:22:00,4.3,-6.5,29.78,South,186,9.0,27.0,60,0.00,,,0.00,meteohub,2013-01-12 02:22:00,
2013-01-11 19:27:00,4.1,-6.3,29.78,SE,134,7.0,23.0,61,0.00,,,0.00,meteohub,2013-01-12 02:27:00,
2013-01-11 19:32:00,3.9,-6.5,29.78,SE,139,10.0,20.0,61,0.00,,,0.00,meteohub,2013-01-12 02:32:00,
2013-01-11 19:37:00,4.1,-6.7,29.80,ESE,122,6.0,18.0,60,0.00,,,0.00,meteohub,2013-01-12 02:37:00,
2013-01-11 19:42:00,3.9,-6.9,29.81,SW,235,5.0,21.0,60,0.00,,,0.00,meteohub,2013-01-12 02:42:00,
2013-01-11 19:47:00,3.9,-6.9,29.80,SE,139,7.0,21.0,60,0.00,,,0.00,meteohub,2013-01-12 02:47:00,
2013-01-11 19:52:00,3.7,-6.7,29.81,SE,142,4.0,21.0,61,0.00,,,0.00,meteohub,2013-01-12 02:52:00,
2013-01-11 19:57:00,3.7,-6.3,29.80,ESE,115,12.0,21.0,62,0.00,,,0.00,meteohub,2013-01-12 02:57:00,
2013-01-11 20:02:00,3.6,-6.5,29.82,SW,221,3.0,21.0,62,0.00,,,0.00,meteohub,2013-01-12 03:02:00,
2013-01-11 20:07:00,3.6,-6.2,29.82,ESE,115,3.0,21.0,63,0.00,,,0.00,meteohub,2013-01-12 03:07:00,
2013-01-11 20:12:00,3.4,-6.0,29.83,East,101,5.0,21.0,64,0.00,,,0.00,meteohub,2013-01-12 03:12:00,
2013-01-11 20:17:00,3.2,-6.0,29.84,SE,135,4.0,21.0,65,0.00,,,0.00,meteohub,2013-01-12 03:17:00,
2013-01-11 20:22:00,3.0,-6.2,29.85,WSW,247,3.0,21.0,65,0.00,,,0.00,meteohub,2013-01-12 03:22:00,
2013-01-11 20:27:00,3.0,-5.8,29.85,SE,133,5.0,26.0,66,0.00,,,0.00,meteohub,2013-01-12 03:27:00,
2013-01-11 20:32:00,3.0,-5.4,29.84,South,176,7.0,26.0,67,0.00,,,0.00,meteohub,2013-01-12 03:32:00,
2013-01-11 20:37:00,3.0,-5.4,29.85,ESE,122,9.0,20.0,67,0.00,,,0.00,meteohub,2013-01-12 03:37:00,
2013-01-11 20:42:00,2.8,-5.6,29.85,SE,136,9.0,20.0,67,0.00,,,0.00,meteohub,2013-01-12 03:42:00,
2013-01-11 20:47:00,2.8,-5.6,29.86,SE,126,3.0,18.0,67,0.00,,,0.00,meteohub,2013-01-12 03:47:00,
2013-01-11 20:52:00,2.8,-5.3,29.86,WNW,283,2.0,18.0,68,0.00,,,0.00,meteohub,2013-01-12 03:52:00,
2013-01-11 20:57:00,2.7,-5.8,29.86,SSE,160,3.0,18.0,67,0.00,,,0.00,meteohub,2013-01-12 03:57:00,
2013-01-11 21:02:00,2.7,-5.8,29.86,SE,146,5.0,14.0,67,0.00,,,0.00,meteohub,2013-01-12 04:02:00,
2013-01-11 21:07:00,2.7,-6.2,29.86,ESE,115,11.0,18.0,66,0.00,,,0.00,meteohub,2013-01-12 04:07:00,
2013-01-11 21:12:00,2.7,-6.2,29.86,ESE,119,6.0,19.0,66,0.00,,,0.00,meteohub,2013-01-12 04:12:00,
2013-01-11 21:17:00,2.8,-6.0,29.86,WNW,284,3.0,19.0,66,0.00,,,0.00,meteohub,2013-01-12 04:17:00,
2013-01-11 21:22:00,2.7,-6.3,29.87,SSE,162,11.0,19.0,65,0.00,,,0.00,meteohub,2013-01-12 04:22:00,
2013-01-11 21:27:00,2.7,-6.3,29.86,South,180,7.0,20.0,65,0.00,,,0.00,meteohub,2013-01-12 04:27:00,
2013-01-11 21:32:00,2.7,-6.3,29.86,SW,218,6.0,20.0,65,0.00,,,0.00,meteohub,2013-01-12 04:32:00,
2013-01-11 21:38:00,2.7,-6.3,29.86,ESE,112,12.0,20.0,65,0.00,,,0.00,meteohub,2013-01-12 04:38:00,
2013-01-11 21:43:00,2.5,-6.5,29.87,ESE,105,4.0,17.0,65,0.00,,,0.00,meteohub,2013-01-12 04:43:00,
2013-01-11 21:48:00,2.5,-6.3,29.87,West,274,4.0,17.0,66,0.00,,,0.00,meteohub,2013-01-12 04:48:00,
2013-01-11 21:53:00,2.5,-6.3,29.87,SSE,150,2.0,17.0,66,0.00,,,0.00,meteohub,2013-01-12 04:53:00,
2013-01-11 21:58:00,2.1,-6.7,29.88,South,187,2.0,16.0,66,0.00,,,0.00,meteohub,2013-01-12 04:58:00,
2013-01-11 22:00:00,2.1,-6.7,29.88,SE,131,2.0,16.0,66,0.00,,,0.00,meteohub,2013-01-12 05:00:00,
2013-01-11 22:01:00,2.1,-6.3,29.88,NNE,15,3.0,16.0,67,0.00,,,0.00,meteohub,2013-01-12 05:01:00,
2013-01-11 22:02:00,2.1,-6.3,29.88,SSW,195,7.0,16.0,67,0.00,,,0.00,meteohub,2013-01-12 05:02:00,
2013-01-11 22:03:00,2.1,-6.3,29.88,East,94,8.0,16.0,67,0.00,,,0.00,meteohub,2013-01-12 05:03:00,
2013-01-11 22:08:00,2.1,-6.3,29.88,West,266,4.0,11.0,67,0.00,,,0.00,meteohub,2013-01-12 05:08:00,
2013-01-11 22:13:00,1.9,-6.5,29.90,ESE,116,5.0,15.0,67,0.00,,,0.00,meteohub,2013-01-12 05:13:00,
2013-01-11 22:19:00,1.9,-6.2,29.91,SSE,159,3.0,15.0,68,0.00,,,0.00,meteohub,2013-01-12 05:19:00,
2013-01-11 22:24:00,1.8,-6.3,29.90,SE,126,4.0,10.0,68,0.00,,,0.00,meteohub,2013-01-12 05:24:00,
2013-01-11 22:29:00,1.6,-6.5,29.91,ESE,116,7.0,10.0,68,0.00,,,0.00,meteohub,2013-01-12 05:29:00,
2013-01-11 22:34:00,1.4,-6.3,29.91,ESE,108,1.0,10.0,69,0.00,,,0.00,meteohub,2013-01-12 05:34:00,
2013-01-11 22:39:00,1.2,-6.5,29.92,SE,133,2.0,8.0,69,0.00,,,0.00,meteohub,2013-01-12 05:39:00,
2013-01-11 22:44:00,1.2,-6.3,29.92,ESE,120,4.0,8.0,70,0.00,,,0.00,meteohub,2013-01-12 05:44:00,
2013-01-11 22:49:00,1.4,-6.2,29.92,ESE,114,8.0,8.0,70,0.00,,,0.00,meteohub,2013-01-12 05:49:00,
2013-01-11 22:55:00,1.6,-6.2,29.92,East,96,7.0,12.0,69,0.00,,,0.00,meteohub,2013-01-12 05:55:00,
2013-01-11 23:00:00,1.6,-6.2,29.92,SE,128,8.0,12.0,69,0.00,,,0.00,meteohub,2013-01-12 06:00:00,
2013-01-11 23:05:00,1.6,-6.2,29.92,SW,218,3.0,13.0,69,0.00,,,0.00,meteohub,2013-01-12 06:05:00,
2013-01-11 23:10:00,1.4,-6.3,29.93,SE,142,3.0,13.0,69,0.00,,,0.00,meteohub,2013-01-12 06:10:00,
2013-01-11 23:15:00,1.4,-6.3,29.93,SE,126,5.0,13.0,69,0.00,,,0.00,meteohub,2013-01-12 06:15:00,
2013-01-11 23:20:00,1.4,-6.3,29.94,SSW,196,2.0,12.0,69,0.00,,,0.00,meteohub,2013-01-12 06:20:00,
2013-01-11 23:26:00,1.2,-6.3,29.95,SSW,201,5.0,12.0,70,0.00,,,0.00,meteohub,2013-01-12 06:26:00,
2013-01-11 23:31:00,1.2,-6.3,29.95,ESE,119,2.0,12.0,70,0.00,,,0.00,meteohub,2013-01-12 06:31:00,
2013-01-11 23:36:00,1.0,-6.5,29.95,ESE,103,4.0,11.0,70,0.00,,,0.00,meteohub,2013-01-12 06:36:00,
2013-01-11 23:41:00,1.0,-6.5,29.95,ESE,110,4.0,11.0,70,0.00,,,0.00,meteohub,2013-01-12 06:41:00,
2013-01-11 23:46:00,1.0,-6.2,29.95,SE,126,2.0,11.0,71,0.00,,,0.00,meteohub,2013-01-12 06:46:00,
2013-01-11 23:51:00,0.9,-6.3,29.94,SSE,162,3.0,11.0,71,0.00,,,0.00,meteohub,2013-01-12 06:51:00,
2013-01-11 23:56:00,0.9,-6.3,29.94,SE,126,6.0,11.0,71,0.00,,,0.00,meteohub,2013-01-12 06:56:00,